owner,sensor,date,latitude,longitude,vertical_datum,sea_water_practical_salinity,qcFlag 
NERRS,ioos:station:NOAA.NERRS:gndbcwq:1,2011-10-01T06:45:00Z,30.3836,-88.4364,0.0,16.7,1111122 
NERRS,ioos:station:NOAA.NERRS:gndbcwq:1,2011-10-01T07:45:00Z,30.3836,-88.4364,0.0,15.6,1111122 
NERRS,ioos:station:NOAA.NERRS:gndbcwq:1,2011-10-01T08:30:00Z,30.3836,-88.4364,0.0,9.0,1111122 
NERRS,ioos:station:NOAA.NERRS:gndbcwq:1,2011-10-01T09:45:00Z,30.3836,-88.4364,0.0,17.0,1111122 
NERRS,ioos:station:NOAA.NERRS:gndbcwq:1,2011-10-01T10:45:00Z,30.3836,-88.4364,0.0,8.1,1111122 
NERRS,ioos:station:NOAA.NERRS:gndbcwq:1,2011-10-01T11:45:00Z,30.3836,-88.4364,0.0,8.2,1111122 
NERRS,ioos:station:NOAA.NERRS:gndbcwq:1,2011-10-01T12:45:00Z,30.3836,-88.4364,0.0,8.6,1111122 
NERRS,ioos:station:NOAA.NERRS:gndbcwq:1,2011-10-01T13:45:00Z,30.3836,-88.4364,0.0,8.5,1111122 
NERRS,ioos:station:NOAA.NERRS:gndbcwq:1,2011-10-01T14:45:00Z,30.3836,-88.4364,0.0,7.9,1111122 
NERRS,ioos:station:NOAA.NERRS:gndbcwq:1,2011-10-01T15:45:00Z,30.3836,-88.4364,0.0,10.8,1111122 
NERRS,ioos:station:NOAA.NERRS:gndbcwq:1,2011-10-01T16:45:00Z,30.3836,-88.4364,0.0,11.1,1111122 
NERRS,ioos:station:NOAA.NERRS:gndbcwq:1,2011-10-01T17:45:00Z,30.3836,-88.4364,0.0,13.0,1111122 
NERRS,ioos:station:NOAA.NERRS:gndbcwq:1,2011-10-01T18:45:00Z,30.3836,-88.4364,0.0,11.0,1111122 
NERRS,ioos:station:NOAA.NERRS:gndbcwq:1,2011-10-01T19:45:00Z,30.3836,-88.4364,0.0,10.8,1111122 
NERRS,ioos:station:NOAA.NERRS:gndbcwq:1,2011-10-01T20:45:00Z,30.3836,-88.4364,0.0,12.4,1111122 
NERRS,ioos:station:NOAA.NERRS:gndbcwq:1,2011-10-01T21:45:00Z,30.3836,-88.4364,0.0,9.8,1111122 
NERRS,ioos:station:NOAA.NERRS:gndbcwq:1,2011-10-01T22:45:00Z,30.3836,-88.4364,0.0,11.3,1111122 
NERRS,ioos:station:NOAA.NERRS:gndbcwq:1,2011-10-01T23:45:00Z,30.3836,-88.4364,0.0,13.6,1111122 
NERRS,ioos:station:NOAA.NERRS:gndbcwq:1,2011-10-02T06:45:00Z,30.3836,-88.4364,0.0,18.3,1111122 
NERRS,ioos:station:NOAA.NERRS:gndbcwq:1,2011-10-02T07:45:00Z,30.3836,-88.4364,0.0,18.1,1111122 
NERRS,ioos:station:NOAA.NERRS:gndbcwq:1,2011-10-02T08:45:00Z,30.3836,-88.4364,0.0,19.7,1111122 
NERRS,ioos:station:NOAA.NERRS:gndbcwq:1,2011-10-02T09:45:00Z,30.3836,-88.4364,0.0,20.1,1111122 
NERRS,ioos:station:NOAA.NERRS:gndbcwq:1,2011-10-02T10:45:00Z,30.3836,-88.4364,0.0,10.7,1111122 
NERRS,ioos:station:NOAA.NERRS:gndbcwq:1,2011-10-02T11:45:00Z,30.3836,-88.4364,0.0,11.1,1111122 
NERRS,ioos:station:NOAA.NERRS:gndbcwq:1,2011-10-02T12:45:00Z,30.3836,-88.4364,0.0,11.8,1111122 
NERRS,ioos:station:NOAA.NERRS:gndbcwq:1,2011-10-02T13:45:00Z,30.3836,-88.4364,0.0,11.4,1111122 
NERRS,ioos:station:NOAA.NERRS:gndbcwq:1,2011-10-02T14:45:00Z,30.3836,-88.4364,0.0,12.0,1111122 
NERRS,ioos:station:NOAA.NERRS:gndbcwq:1,2011-10-02T15:45:00Z,30.3836,-88.4364,0.0,12.5,1111122 
NERRS,ioos:station:NOAA.NERRS:gndbcwq:1,2011-10-02T16:45:00Z,30.3836,-88.4364,0.0,12.6,1111122 
NERRS,ioos:station:NOAA.NERRS:gndbcwq:1,2011-10-02T17:45:00Z,30.3836,-88.4364,0.0,13.4,1111122 
NERRS,ioos:station:NOAA.NERRS:gndbcwq:1,2011-10-02T18:45:00Z,30.3836,-88.4364,0.0,12.1,1111122 
NERRS,ioos:station:NOAA.NERRS:gndbcwq:1,2011-10-02T19:45:00Z,30.3836,-88.4364,0.0,12.1,1111122 
NERRS,ioos:station:NOAA.NERRS:gndbcwq:1,2011-10-02T20:45:00Z,30.3836,-88.4364,0.0,12.0,1111122 
NERRS,ioos:station:NOAA.NERRS:gndbcwq:1,2011-10-02T21:45:00Z,30.3836,-88.4364,0.0,13.5,1111122 
NERRS,ioos:station:NOAA.NERRS:gndbcwq:1,2011-10-02T22:45:00Z,30.3836,-88.4364,0.0,14.8,1111122 
NERRS,ioos:station:NOAA.NERRS:gndbcwq:1,2011-10-02T23:45:00Z,30.3836,-88.4364,0.0,15.4,1111122 
NERRS,ioos:station:NOAA.NERRS:gndbcwq:1,2011-10-03T06:00:00Z,30.3836,-88.4364,0.0,19.6,1111122 
NERRS,ioos:station:NOAA.NERRS:gndbcwq:1,2011-10-03T06:45:00Z,30.3836,-88.4364,0.0,21.1,1111122 
NERRS,ioos:station:NOAA.NERRS:gndbcwq:1,2011-10-03T08:15:00Z,30.3836,-88.4364,0.0,21.3,1111122 
NERRS,ioos:station:NOAA.NERRS:gndbcwq:1,2011-10-03T09:45:00Z,30.3836,-88.4364,0.0,19.2,1111122 
NERRS,ioos:station:NOAA.NERRS:gndbcwq:1,2011-10-03T10:45:00Z,30.3836,-88.4364,0.0,19.8,1111122 
NERRS,ioos:station:NOAA.NERRS:gndbcwq:1,2011-10-03T11:45:00Z,30.3836,-88.4364,0.0,13.4,1111122 
NERRS,ioos:station:NOAA.NERRS:gndbcwq:1,2011-10-03T12:45:00Z,30.3836,-88.4364,0.0,12.6,1111122 
NERRS,ioos:station:NOAA.NERRS:gndbcwq:1,2011-10-03T13:45:00Z,30.3836,-88.4364,0.0,14.1,1111122 
NERRS,ioos:station:NOAA.NERRS:gndbcwq:1,2011-10-03T14:45:00Z,30.3836,-88.4364,0.0,14.6,1111122 
NERRS,ioos:station:NOAA.NERRS:gndbcwq:1,2011-10-03T15:45:00Z,30.3836,-88.4364,0.0,17.0,1111122 
NERRS,ioos:station:NOAA.NERRS:gndbcwq:1,2011-10-03T16:45:00Z,30.3836,-88.4364,0.0,16.6,1111122 
NERRS,ioos:station:NOAA.NERRS:gndbcwq:1,2011-10-03T17:30:00Z,30.3836,-88.4364,0.0,13.2,1111122 
NERRS,ioos:station:NOAA.NERRS:gndbcwq:1,2011-10-03T18:45:00Z,30.3836,-88.4364,0.0,13.1,1111122 
NERRS,ioos:station:NOAA.NERRS:gndbcwq:1,2011-10-03T19:30:00Z,30.3836,-88.4364,0.0,15.9,1111122 
NERRS,ioos:station:NOAA.NERRS:gndbcwq:1,2011-10-03T20:30:00Z,30.3836,-88.4364,0.0,15.8,1111122 
NERRS,ioos:station:NOAA.NERRS:gndbcwq:1,2011-10-03T21:45:00Z,30.3836,-88.4364,0.0,15.8,1111122 
NERRS,ioos:station:NOAA.NERRS:gndbcwq:1,2011-10-03T22:45:00Z,30.3836,-88.4364,0.0,15.6,1111122 
NERRS,ioos:station:NOAA.NERRS:gndbcwq:1,2011-10-03T23:45:00Z,30.3836,-88.4364,0.0,16.5,1111122 
NERRS,ioos:station:NOAA.NERRS:gndbcwq:1,2011-10-04T06:15:00Z,30.3836,-88.4364,0.0,21.0,1111122 
NERRS,ioos:station:NOAA.NERRS:gndbcwq:1,2011-10-04T07:15:00Z,30.3836,-88.4364,0.0,20.8,1111122 
NERRS,ioos:station:NOAA.NERRS:gndbcwq:1,2011-10-04T08:45:00Z,30.3836,-88.4364,0.0,21.6,1111122 
NERRS,ioos:station:NOAA.NERRS:gndbcwq:1,2011-10-04T10:00:00Z,30.3836,-88.4364,0.0,17.2,1111122 
NERRS,ioos:station:NOAA.NERRS:gndbcwq:1,2011-10-04T12:00:00Z,30.3836,-88.4364,0.0,16.8,1111122 
NERRS,ioos:station:NOAA.NERRS:gndbcwq:1,2011-10-04T14:30:00Z,30.3836,-88.4364,0.0,17.4,1111122 
NERRS,ioos:station:NOAA.NERRS:gndbcwq:1,2011-10-04T15:45:00Z,30.3836,-88.4364,0.0,17.0,1111122 
NERRS,ioos:station:NOAA.NERRS:gndbcwq:1,2011-10-04T16:45:00Z,30.3836,-88.4364,0.0,16.5,1111122 
NERRS,ioos:station:NOAA.NERRS:gndbcwq:1,2011-10-04T17:45:00Z,30.3836,-88.4364,0.0,16.3,1111122 
NERRS,ioos:station:NOAA.NERRS:gndbcwq:1,2011-10-04T18:45:00Z,30.3836,-88.4364,0.0,17.2,1111122 
NERRS,ioos:station:NOAA.NERRS:gndbcwq:1,2011-10-04T19:45:00Z,30.3836,-88.4364,0.0,16.8,1111122 
NERRS,ioos:station:NOAA.NERRS:gndbcwq:1,2011-10-04T20:45:00Z,30.3836,-88.4364,0.0,18.1,1111122 
NERRS,ioos:station:NOAA.NERRS:gndbcwq:1,2011-10-04T21:45:00Z,30.3836,-88.4364,0.0,15.9,1111122 
NERRS,ioos:station:NOAA.NERRS:gndbcwq:1,2011-10-04T22:45:00Z,30.3836,-88.4364,0.0,17.1,1111122 
NERRS,ioos:station:NOAA.NERRS:gndbcwq:1,2011-10-04T23:30:00Z,30.3836,-88.4364,0.0,17.0,1111122 
NERRS,ioos:station:NOAA.NERRS:gndbcwq:1,2011-10-05T06:15:00Z,30.3836,-88.4364,0.0,19.6,1111122 
NERRS,ioos:station:NOAA.NERRS:gndbcwq:1,2011-10-05T06:30:00Z,30.3836,-88.4364,0.0,19.4,1111122 
NERRS,ioos:station:NOAA.NERRS:gndbcwq:1,2011-10-05T06:45:00Z,30.3836,-88.4364,0.0,20.7,1111122 
NERRS,ioos:station:NOAA.NERRS:gndbcwq:1,2011-10-05T07:00:00Z,30.3836,-88.4364,0.0,20.1,1111122 
NERRS,ioos:station:NOAA.NERRS:gndbcwq:1,2011-10-05T07:30:00Z,30.3836,-88.4364,0.0,20.4,1111122 
NERRS,ioos:station:NOAA.NERRS:gndbcwq:1,2011-10-05T07:45:00Z,30.3836,-88.4364,0.0,20.9,1111122 
NERRS,ioos:station:NOAA.NERRS:gndbcwq:1,2011-10-05T14:15:00Z,30.3836,-88.4364,0.0,19.4,1111122 
NERRS,ioos:station:NOAA.NERRS:gndbcwq:1,2011-10-05T15:00:00Z,30.3836,-88.4364,0.0,18.7,1111122 
NERRS,ioos:station:NOAA.NERRS:gndbcwq:1,2011-10-05T17:00:00Z,30.3836,-88.4364,0.0,19.2,1111122 
NERRS,ioos:station:NOAA.NERRS:gndbcwq:1,2011-10-05T19:45:00Z,30.3836,-88.4364,0.0,16.9,1111122 
NERRS,ioos:station:NOAA.NERRS:gndbcwq:1,2011-10-05T20:45:00Z,30.3836,-88.4364,0.0,18.7,1111122 
NERRS,ioos:station:NOAA.NERRS:gndbcwq:1,2011-10-05T21:30:00Z,30.3836,-88.4364,0.0,19.2,1111122 
NERRS,ioos:station:NOAA.NERRS:gndbcwq:1,2011-10-05T22:45:00Z,30.3836,-88.4364,0.0,18.9,1111122 
NERRS,ioos:station:NOAA.NERRS:gndbcwq:1,2011-10-05T23:45:00Z,30.3836,-88.4364,0.0,18.8,1111122 
NERRS,ioos:station:NOAA.NERRS:gndbcwq:1,2011-10-06T06:00:00Z,30.3836,-88.4364,0.0,20.1,1111122 
NERRS,ioos:station:NOAA.NERRS:gndbcwq:1,2011-10-06T06:30:00Z,30.3836,-88.4364,0.0,20.2,1111122 
NERRS,ioos:station:NOAA.NERRS:gndbcwq:1,2011-10-06T07:15:00Z,30.3836,-88.4364,0.0,20.3,1111122 
NERRS,ioos:station:NOAA.NERRS:gndbcwq:1,2011-10-06T08:15:00Z,30.3836,-88.4364,0.0,20.5,1111122 
NERRS,ioos:station:NOAA.NERRS:gndbcwq:1,2011-10-06T09:30:00Z,30.3836,-88.4364,0.0,21.2,1111122 
NERRS,ioos:station:NOAA.NERRS:gndbcwq:1,2011-10-06T09:45:00Z,30.3836,-88.4364,0.0,20.7,1111122 
NERRS,ioos:station:NOAA.NERRS:gndbcwq:1,2011-10-06T11:00:00Z,30.3836,-88.4364,0.0,20.2,1111122 
NERRS,ioos:station:NOAA.NERRS:gndbcwq:1,2011-10-06T12:30:00Z,30.3836,-88.4364,0.0,21.5,1111122 
NERRS,ioos:station:NOAA.NERRS:gndbcwq:1,2011-10-06T14:00:00Z,30.3836,-88.4364,0.0,21.4,1111122 
NERRS,ioos:station:NOAA.NERRS:gndbcwq:1,2011-10-06T16:00:00Z,30.3836,-88.4364,0.0,21.5,1111122 
NERRS,ioos:station:NOAA.NERRS:gndbcwq:1,2011-10-06T18:30:00Z,30.3836,-88.4364,0.0,20.5,1111122 
NERRS,ioos:station:NOAA.NERRS:gndbcwq:1,2011-10-06T19:45:00Z,30.3836,-88.4364,0.0,20.9,1111122 
NERRS,ioos:station:NOAA.NERRS:gndbcwq:1,2011-10-06T22:15:00Z,30.3836,-88.4364,0.0,20.2,1111122 
NERRS,ioos:station:NOAA.NERRS:gndbcwq:1,2011-10-07T06:30:00Z,30.3836,-88.4364,0.0,20.3,1111122 
NERRS,ioos:station:NOAA.NERRS:gndbcwq:1,2011-10-07T07:15:00Z,30.3836,-88.4364,0.0,21.2,1111122 
NERRS,ioos:station:NOAA.NERRS:gndbcwq:1,2011-10-07T07:45:00Z,30.3836,-88.4364,0.0,21.0,1111122 
NERRS,ioos:station:NOAA.NERRS:gndbcwq:1,2011-10-07T09:00:00Z,30.3836,-88.4364,0.0,21.1,1111122 
NERRS,ioos:station:NOAA.NERRS:gndbcwq:1,2011-10-07T09:45:00Z,30.3836,-88.4364,0.0,20.9,1111122 
NERRS,ioos:station:NOAA.NERRS:gndbcwq:1,2011-10-07T10:45:00Z,30.3836,-88.4364,0.0,21.8,1111122 
NERRS,ioos:station:NOAA.NERRS:gndbcwq:1,2011-10-07T11:45:00Z,30.3836,-88.4364,0.0,21.2,1111122 
NERRS,ioos:station:NOAA.NERRS:gndbcwq:1,2011-10-07T13:45:00Z,30.3836,-88.4364,0.0,22.3,1111122 
NERRS,ioos:station:NOAA.NERRS:gndbcwq:1,2011-10-07T14:45:00Z,30.3836,-88.4364,0.0,23.5,1111122 
NERRS,ioos:station:NOAA.NERRS:gndbcwq:1,2011-10-07T15:45:00Z,30.3836,-88.4364,0.0,23.2,1111122 
NERRS,ioos:station:NOAA.NERRS:gndbcwq:1,2011-10-07T16:45:00Z,30.3836,-88.4364,0.0,22.5,1111122 
NERRS,ioos:station:NOAA.NERRS:gndbcwq:1,2011-10-07T17:45:00Z,30.3836,-88.4364,0.0,21.6,1111122 
NERRS,ioos:station:NOAA.NERRS:gndbcwq:1,2011-10-07T18:30:00Z,30.3836,-88.4364,0.0,21.5,1111122 
NERRS,ioos:station:NOAA.NERRS:gndbcwq:1,2011-10-07T19:45:00Z,30.3836,-88.4364,0.0,21.3,1111122 
NERRS,ioos:station:NOAA.NERRS:gndbcwq:1,2011-10-07T20:45:00Z,30.3836,-88.4364,0.0,21.2,1111122 
NERRS,ioos:station:NOAA.NERRS:gndbcwq:1,2011-10-07T21:45:00Z,30.3836,-88.4364,0.0,21.0,1111122 
NERRS,ioos:station:NOAA.NERRS:gndbcwq:1,2011-10-07T22:45:00Z,30.3836,-88.4364,0.0,21.6,1111122 
NERRS,ioos:station:NOAA.NERRS:gndbcwq:1,2011-10-07T23:45:00Z,30.3836,-88.4364,0.0,21.4,1111122 
NERRS,ioos:station:NOAA.NERRS:gndbcwq:1,2011-10-08T06:45:00Z,30.3836,-88.4364,0.0,21.1,1111122 
NERRS,ioos:station:NOAA.NERRS:gndbcwq:1,2011-10-08T07:30:00Z,30.3836,-88.4364,0.0,21.5,1111122 
NERRS,ioos:station:NOAA.NERRS:gndbcwq:1,2011-10-08T08:30:00Z,30.3836,-88.4364,0.0,21.9,1111122 
NERRS,ioos:station:NOAA.NERRS:gndbcwq:1,2011-10-08T09:45:00Z,30.3836,-88.4364,0.0,21.4,1111122 
NERRS,ioos:station:NOAA.NERRS:gndbcwq:1,2011-10-08T10:45:00Z,30.3836,-88.4364,0.0,20.7,1111122 
NERRS,ioos:station:NOAA.NERRS:gndbcwq:1,2011-10-08T11:45:00Z,30.3836,-88.4364,0.0,21.8,1111122 
NERRS,ioos:station:NOAA.NERRS:gndbcwq:1,2011-10-08T12:45:00Z,30.3836,-88.4364,0.0,22.0,1111122 
NERRS,ioos:station:NOAA.NERRS:gndbcwq:1,2011-10-08T13:45:00Z,30.3836,-88.4364,0.0,22.3,1111122 
NERRS,ioos:station:NOAA.NERRS:gndbcwq:1,2011-10-08T14:45:00Z,30.3836,-88.4364,0.0,22.3,1111122 
NERRS,ioos:station:NOAA.NERRS:gndbcwq:1,2011-10-08T15:45:00Z,30.3836,-88.4364,0.0,22.3,1111122 
NERRS,ioos:station:NOAA.NERRS:gndbcwq:1,2011-10-08T16:45:00Z,30.3836,-88.4364,0.0,22.3,1111122 
NERRS,ioos:station:NOAA.NERRS:gndbcwq:1,2011-10-08T17:45:00Z,30.3836,-88.4364,0.0,22.1,1111122 
NERRS,ioos:station:NOAA.NERRS:gndbcwq:1,2011-10-08T19:30:00Z,30.3836,-88.4364,0.0,22.0,1111122 
NERRS,ioos:station:NOAA.NERRS:gndbcwq:1,2011-10-08T20:15:00Z,30.3836,-88.4364,0.0,22.2,1111122 
NERRS,ioos:station:NOAA.NERRS:gndbcwq:1,2011-10-08T21:00:00Z,30.3836,-88.4364,0.0,22.3,1111122 
NERRS,ioos:station:NOAA.NERRS:gndbcwq:1,2011-10-08T22:45:00Z,30.3836,-88.4364,0.0,21.8,1111122 
NERRS,ioos:station:NOAA.NERRS:gndbcwq:1,2011-10-08T23:45:00Z,30.3836,-88.4364,0.0,21.9,1111122 
NERRS,ioos:station:NOAA.NERRS:gndbcwq:1,2011-10-09T06:45:00Z,30.3836,-88.4364,0.0,22.4,1111122 
NERRS,ioos:station:NOAA.NERRS:gndbcwq:1,2011-10-09T07:15:00Z,30.3836,-88.4364,0.0,22.1,1111122 
NERRS,ioos:station:NOAA.NERRS:gndbcwq:1,2011-10-09T08:45:00Z,30.3836,-88.4364,0.0,20.6,1111122 
NERRS,ioos:station:NOAA.NERRS:gndbcwq:1,2011-10-09T09:45:00Z,30.3836,-88.4364,0.0,21.7,1111122 
NERRS,ioos:station:NOAA.NERRS:gndbcwq:1,2011-10-09T10:45:00Z,30.3836,-88.4364,0.0,21.1,1111122 
NERRS,ioos:station:NOAA.NERRS:gndbcwq:1,2011-10-09T11:45:00Z,30.3836,-88.4364,0.0,21.5,1111122 
NERRS,ioos:station:NOAA.NERRS:gndbcwq:1,2011-10-09T12:45:00Z,30.3836,-88.4364,0.0,21.3,1111122 
NERRS,ioos:station:NOAA.NERRS:gndbcwq:1,2011-10-09T13:45:00Z,30.3836,-88.4364,0.0,21.5,1111122 
NERRS,ioos:station:NOAA.NERRS:gndbcwq:1,2011-10-09T14:30:00Z,30.3836,-88.4364,0.0,21.8,1111122 
NERRS,ioos:station:NOAA.NERRS:gndbcwq:1,2011-10-09T15:45:00Z,30.3836,-88.4364,0.0,22.3,1111122 
NERRS,ioos:station:NOAA.NERRS:gndbcwq:1,2011-10-09T16:30:00Z,30.3836,-88.4364,0.0,22.4,1111122 
NERRS,ioos:station:NOAA.NERRS:gndbcwq:1,2011-10-09T17:45:00Z,30.3836,-88.4364,0.0,22.7,1111122 
NERRS,ioos:station:NOAA.NERRS:gndbcwq:1,2011-10-09T18:30:00Z,30.3836,-88.4364,0.0,22.7,1111122 
NERRS,ioos:station:NOAA.NERRS:gndbcwq:1,2011-10-09T19:45:00Z,30.3836,-88.4364,0.0,22.8,1111122 
NERRS,ioos:station:NOAA.NERRS:gndbcwq:1,2011-10-09T20:45:00Z,30.3836,-88.4364,0.0,22.9,1111122 
NERRS,ioos:station:NOAA.NERRS:gndbcwq:1,2011-10-09T21:45:00Z,30.3836,-88.4364,0.0,22.6,1111122 
NERRS,ioos:station:NOAA.NERRS:gndbcwq:1,2011-10-09T22:45:00Z,30.3836,-88.4364,0.0,22.4,1111122 
NERRS,ioos:station:NOAA.NERRS:gndbcwq:1,2011-10-09T23:45:00Z,30.3836,-88.4364,0.0,22.4,1111122 
NERRS,ioos:station:NOAA.NERRS:gndbcwq:1,2011-10-10T06:45:00Z,30.3836,-88.4364,0.0,21.7,1111122 
NERRS,ioos:station:NOAA.NERRS:gndbcwq:1,2011-10-10T07:45:00Z,30.3836,-88.4364,0.0,20.9,1111122 
NERRS,ioos:station:NOAA.NERRS:gndbcwq:1,2011-10-10T08:45:00Z,30.3836,-88.4364,0.0,20.6,1111122 
NERRS,ioos:station:NOAA.NERRS:gndbcwq:1,2011-10-10T09:45:00Z,30.3836,-88.4364,0.0,20.2,1111122 
NERRS,ioos:station:NOAA.NERRS:gndbcwq:1,2011-10-10T10:30:00Z,30.3836,-88.4364,0.0,20.1,1111122 
NERRS,ioos:station:NOAA.NERRS:gndbcwq:1,2011-10-10T11:45:00Z,30.3836,-88.4364,0.0,21.5,1111122 
NERRS,ioos:station:NOAA.NERRS:gndbcwq:1,2011-10-10T12:45:00Z,30.3836,-88.4364,0.0,21.5,1111122 
NERRS,ioos:station:NOAA.NERRS:gndbcwq:1,2011-10-10T13:45:00Z,30.3836,-88.4364,0.0,21.4,1111122 
NERRS,ioos:station:NOAA.NERRS:gndbcwq:1,2011-10-10T14:45:00Z,30.3836,-88.4364,0.0,21.7,1111122 
NERRS,ioos:station:NOAA.NERRS:gndbcwq:1,2011-10-10T15:30:00Z,30.3836,-88.4364,0.0,21.8,1111122 
NERRS,ioos:station:NOAA.NERRS:gndbcwq:1,2011-10-10T16:45:00Z,30.3836,-88.4364,0.0,21.6,1111122 
NERRS,ioos:station:NOAA.NERRS:gndbcwq:1,2011-10-10T17:45:00Z,30.3836,-88.4364,0.0,22.1,1111122 
NERRS,ioos:station:NOAA.NERRS:gndbcwq:1,2011-10-10T18:45:00Z,30.3836,-88.4364,0.0,22.7,1111122 
NERRS,ioos:station:NOAA.NERRS:gndbcwq:1,2011-10-10T19:45:00Z,30.3836,-88.4364,0.0,22.6,1111122 
NERRS,ioos:station:NOAA.NERRS:gndbcwq:1,2011-10-10T20:45:00Z,30.3836,-88.4364,0.0,22.1,1111122 
NERRS,ioos:station:NOAA.NERRS:gndbcwq:1,2011-10-10T21:45:00Z,30.3836,-88.4364,0.0,21.0,1111122 
NERRS,ioos:station:NOAA.NERRS:gndbcwq:1,2011-10-10T22:45:00Z,30.3836,-88.4364,0.0,21.7,1111122 
NERRS,ioos:station:NOAA.NERRS:gndbcwq:1,2011-10-10T23:45:00Z,30.3836,-88.4364,0.0,21.3,1111122 
NERRS,ioos:station:NOAA.NERRS:gndbcwq:1,2011-10-11T06:45:00Z,30.3836,-88.4364,0.0,20.8,1111122 
NERRS,ioos:station:NOAA.NERRS:gndbcwq:1,2011-10-11T07:45:00Z,30.3836,-88.4364,0.0,20.4,1111122 
NERRS,ioos:station:NOAA.NERRS:gndbcwq:1,2011-10-11T08:45:00Z,30.3836,-88.4364,0.0,20.0,1111122 
NERRS,ioos:station:NOAA.NERRS:gndbcwq:1,2011-10-11T09:45:00Z,30.3836,-88.4364,0.0,19.5,1111122 
NERRS,ioos:station:NOAA.NERRS:gndbcwq:1,2011-10-11T10:45:00Z,30.3836,-88.4364,0.0,19.4,1111122 
NERRS,ioos:station:NOAA.NERRS:gndbcwq:1,2011-10-11T11:45:00Z,30.3836,-88.4364,0.0,19.2,1111122 
NERRS,ioos:station:NOAA.NERRS:gndbcwq:1,2011-10-11T12:45:00Z,30.3836,-88.4364,0.0,20.0,1111122 
NERRS,ioos:station:NOAA.NERRS:gndbcwq:1,2011-10-11T13:45:00Z,30.3836,-88.4364,0.0,19.6,1111122 
NERRS,ioos:station:NOAA.NERRS:gndbcwq:1,2011-10-11T14:45:00Z,30.3836,-88.4364,0.0,19.8,1111122 
NERRS,ioos:station:NOAA.NERRS:gndbcwq:1,2011-10-11T15:30:00Z,30.3836,-88.4364,0.0,20.2,1111122 
NERRS,ioos:station:NOAA.NERRS:gndbcwq:1,2011-10-11T16:45:00Z,30.3836,-88.4364,0.0,20.4,1111122 
NERRS,ioos:station:NOAA.NERRS:gndbcwq:1,2011-10-11T17:45:00Z,30.3836,-88.4364,0.0,20.6,1111122 
NERRS,ioos:station:NOAA.NERRS:gndbcwq:1,2011-10-11T18:45:00Z,30.3836,-88.4364,0.0,21.0,1111122 
NERRS,ioos:station:NOAA.NERRS:gndbcwq:1,2011-10-11T19:45:00Z,30.3836,-88.4364,0.0,20.4,1111122 
NERRS,ioos:station:NOAA.NERRS:gndbcwq:1,2011-10-11T20:45:00Z,30.3836,-88.4364,0.0,20.7,1111122 
NERRS,ioos:station:NOAA.NERRS:gndbcwq:1,2011-10-11T21:45:00Z,30.3836,-88.4364,0.0,20.0,1111122 
NERRS,ioos:station:NOAA.NERRS:gndbcwq:1,2011-10-11T22:45:00Z,30.3836,-88.4364,0.0,20.7,1111122 
NERRS,ioos:station:NOAA.NERRS:gndbcwq:1,2011-10-11T23:45:00Z,30.3836,-88.4364,0.0,20.7,1111122 
NERRS,ioos:station:NOAA.NERRS:gndbcwq:1,2011-10-12T06:45:00Z,30.3836,-88.4364,0.0,21.5,1111122 
NERRS,ioos:station:NOAA.NERRS:gndbcwq:1,2011-10-12T07:45:00Z,30.3836,-88.4364,0.0,20.6,1111122 
NERRS,ioos:station:NOAA.NERRS:gndbcwq:1,2011-10-12T08:45:00Z,30.3836,-88.4364,0.0,20.1,1111122 
NERRS,ioos:station:NOAA.NERRS:gndbcwq:1,2011-10-12T09:45:00Z,30.3836,-88.4364,0.0,19.7,1111122 
NERRS,ioos:station:NOAA.NERRS:gndbcwq:1,2011-10-12T10:45:00Z,30.3836,-88.4364,0.0,19.3,1111122 
NERRS,ioos:station:NOAA.NERRS:gndbcwq:1,2011-10-12T11:45:00Z,30.3836,-88.4364,0.0,19.0,1111122 
NERRS,ioos:station:NOAA.NERRS:gndbcwq:1,2011-10-12T12:45:00Z,30.3836,-88.4364,0.0,20.8,1111122 
NERRS,ioos:station:NOAA.NERRS:gndbcwq:1,2011-10-12T13:45:00Z,30.3836,-88.4364,0.0,20.8,1111122 
NERRS,ioos:station:NOAA.NERRS:gndbcwq:1,2011-10-12T14:45:00Z,30.3836,-88.4364,0.0,21.0,1111122 
NERRS,ioos:station:NOAA.NERRS:gndbcwq:1,2011-10-12T15:45:00Z,30.3836,-88.4364,0.0,20.9,1111122 
NERRS,ioos:station:NOAA.NERRS:gndbcwq:1,2011-10-12T16:45:00Z,30.3836,-88.4364,0.0,21.3,1111122 
NERRS,ioos:station:NOAA.NERRS:gndbcwq:1,2011-10-12T17:45:00Z,30.3836,-88.4364,0.0,21.8,1111122 
NERRS,ioos:station:NOAA.NERRS:gndbcwq:1,2011-10-12T18:45:00Z,30.3836,-88.4364,0.0,21.7,1111122 
NERRS,ioos:station:NOAA.NERRS:gndbcwq:1,2011-10-12T19:45:00Z,30.3836,-88.4364,0.0,22.0,1111122 
NERRS,ioos:station:NOAA.NERRS:gndbcwq:1,2011-10-12T20:45:00Z,30.3836,-88.4364,0.0,22.6,1111122 
NERRS,ioos:station:NOAA.NERRS:gndbcwq:1,2011-10-12T21:45:00Z,30.3836,-88.4364,0.0,22.3,1111122 
NERRS,ioos:station:NOAA.NERRS:gndbcwq:1,2011-10-12T22:45:00Z,30.3836,-88.4364,0.0,22.4,1111122 
NERRS,ioos:station:NOAA.NERRS:gndbcwq:1,2011-10-12T23:45:00Z,30.3836,-88.4364,0.0,22.3,1111122 
NERRS,ioos:station:NOAA.NERRS:gndbcwq:1,2011-10-13T06:45:00Z,30.3836,-88.4364,0.0,23.7,1111122 
NERRS,ioos:station:NOAA.NERRS:gndbcwq:1,2011-10-13T07:45:00Z,30.3836,-88.4364,0.0,23.3,1111122 
NERRS,ioos:station:NOAA.NERRS:gndbcwq:1,2011-10-13T08:45:00Z,30.3836,-88.4364,0.0,22.8,1111122 
NERRS,ioos:station:NOAA.NERRS:gndbcwq:1,2011-10-13T09:45:00Z,30.3836,-88.4364,0.0,22.5,1111122 
NERRS,ioos:station:NOAA.NERRS:gndbcwq:1,2011-10-13T10:45:00Z,30.3836,-88.4364,0.0,22.1,1111122 
NERRS,ioos:station:NOAA.NERRS:gndbcwq:1,2011-10-13T11:45:00Z,30.3836,-88.4364,0.0,21.0,1111122 
NERRS,ioos:station:NOAA.NERRS:gndbcwq:1,2011-10-13T12:45:00Z,30.3836,-88.4364,0.0,20.8,1111122 
NERRS,ioos:station:NOAA.NERRS:gndbcwq:1,2011-10-13T13:45:00Z,30.3836,-88.4364,0.0,21.3,1111122 
NERRS,ioos:station:NOAA.NERRS:gndbcwq:1,2011-10-13T14:45:00Z,30.3836,-88.4364,0.0,21.1,1111122 
NERRS,ioos:station:NOAA.NERRS:gndbcwq:1,2011-10-13T15:45:00Z,30.3836,-88.4364,0.0,20.9,1111122 
NERRS,ioos:station:NOAA.NERRS:gndbcwq:1,2011-10-13T16:30:00Z,30.3836,-88.4364,0.0,20.8,1111122 
NERRS,ioos:station:NOAA.NERRS:gndbcwq:1,2011-10-13T17:45:00Z,30.3836,-88.4364,0.0,21.5,1111122 
NERRS,ioos:station:NOAA.NERRS:gndbcwq:1,2011-10-13T18:45:00Z,30.3836,-88.4364,0.0,21.8,1111122 
NERRS,ioos:station:NOAA.NERRS:gndbcwq:1,2011-10-13T19:45:00Z,30.3836,-88.4364,0.0,21.8,1111122 
NERRS,ioos:station:NOAA.NERRS:gndbcwq:1,2011-10-13T20:45:00Z,30.3836,-88.4364,0.0,21.7,1111122 
NERRS,ioos:station:NOAA.NERRS:gndbcwq:1,2011-10-13T21:45:00Z,30.3836,-88.4364,0.0,21.6,1111122 
NERRS,ioos:station:NOAA.NERRS:gndbcwq:1,2011-10-13T22:45:00Z,30.3836,-88.4364,0.0,21.4,1111122 
NERRS,ioos:station:NOAA.NERRS:gndbcwq:1,2011-10-13T23:45:00Z,30.3836,-88.4364,0.0,22.0,1111122 
NERRS,ioos:station:NOAA.NERRS:gndbcwq:1,2011-10-14T06:45:00Z,30.3836,-88.4364,0.0,22.5,1111122 
NERRS,ioos:station:NOAA.NERRS:gndbcwq:1,2011-10-14T07:45:00Z,30.3836,-88.4364,0.0,22.1,1111122 
NERRS,ioos:station:NOAA.NERRS:gndbcwq:1,2011-10-14T08:45:00Z,30.3836,-88.4364,0.0,21.8,1111122 
NERRS,ioos:station:NOAA.NERRS:gndbcwq:1,2011-10-14T09:45:00Z,30.3836,-88.4364,0.0,21.6,1111122 
NERRS,ioos:station:NOAA.NERRS:gndbcwq:1,2011-10-14T10:45:00Z,30.3836,-88.4364,0.0,20.8,1111122 
NERRS,ioos:station:NOAA.NERRS:gndbcwq:1,2011-10-14T11:45:00Z,30.3836,-88.4364,0.0,20.4,1111122 
NERRS,ioos:station:NOAA.NERRS:gndbcwq:1,2011-10-14T12:45:00Z,30.3836,-88.4364,0.0,20.0,1111122 
NERRS,ioos:station:NOAA.NERRS:gndbcwq:1,2011-10-14T13:45:00Z,30.3836,-88.4364,0.0,20.1,1111122 
NERRS,ioos:station:NOAA.NERRS:gndbcwq:1,2011-10-14T14:45:00Z,30.3836,-88.4364,0.0,20.2,1111122 
NERRS,ioos:station:NOAA.NERRS:gndbcwq:1,2011-10-14T15:45:00Z,30.3836,-88.4364,0.0,20.2,1111122 
NERRS,ioos:station:NOAA.NERRS:gndbcwq:1,2011-10-14T16:45:00Z,30.3836,-88.4364,0.0,20.6,1111122 
NERRS,ioos:station:NOAA.NERRS:gndbcwq:1,2011-10-14T17:45:00Z,30.3836,-88.4364,0.0,20.9,1111122 
NERRS,ioos:station:NOAA.NERRS:gndbcwq:1,2011-10-14T18:45:00Z,30.3836,-88.4364,0.0,21.2,1111122 
NERRS,ioos:station:NOAA.NERRS:gndbcwq:1,2011-10-14T19:45:00Z,30.3836,-88.4364,0.0,21.8,1111122 
NERRS,ioos:station:NOAA.NERRS:gndbcwq:1,2011-10-14T20:45:00Z,30.3836,-88.4364,0.0,21.8,1111122 
NERRS,ioos:station:NOAA.NERRS:gndbcwq:1,2011-10-14T21:45:00Z,30.3836,-88.4364,0.0,21.8,1111122 
NERRS,ioos:station:NOAA.NERRS:gndbcwq:1,2011-10-14T22:45:00Z,30.3836,-88.4364,0.0,21.9,1111122 
NERRS,ioos:station:NOAA.NERRS:gndbcwq:1,2011-10-14T23:45:00Z,30.3836,-88.4364,0.0,22.2,1111122 
NERRS,ioos:station:NOAA.NERRS:gndbcwq:1,2011-10-15T06:45:00Z,30.3836,-88.4364,0.0,23.3,1111122 
NERRS,ioos:station:NOAA.NERRS:gndbcwq:1,2011-10-15T07:30:00Z,30.3836,-88.4364,0.0,22.8,1111122 
NERRS,ioos:station:NOAA.NERRS:gndbcwq:1,2011-10-15T08:45:00Z,30.3836,-88.4364,0.0,22.3,1111122 
NERRS,ioos:station:NOAA.NERRS:gndbcwq:1,2011-10-15T09:45:00Z,30.3836,-88.4364,0.0,22.0,1111122 
NERRS,ioos:station:NOAA.NERRS:gndbcwq:1,2011-10-15T10:00:00Z,30.3836,-88.4364,0.0,21.9,1111122 
NERRS,ioos:station:NOAA.NERRS:gndbcwq:1,2011-10-15T11:45:00Z,30.3836,-88.4364,0.0,20.7,1111122 
NERRS,ioos:station:NOAA.NERRS:gndbcwq:1,2011-10-15T12:45:00Z,30.3836,-88.4364,0.0,20.1,1111122 
NERRS,ioos:station:NOAA.NERRS:gndbcwq:1,2011-10-15T13:45:00Z,30.3836,-88.4364,0.0,19.9,1111122 
NERRS,ioos:station:NOAA.NERRS:gndbcwq:1,2011-10-15T14:45:00Z,30.3836,-88.4364,0.0,20.4,1111122 
NERRS,ioos:station:NOAA.NERRS:gndbcwq:1,2011-10-15T15:45:00Z,30.3836,-88.4364,0.0,20.7,1111122 